Time,TemperatureF,DewpointF,PressureIn,WindDirection,WindDirectionDegrees,WindSpeedMPH,WindSpeedGustMPH,Humidity,HourlyPrecipIn,Conditions,Clouds,dailyrainin,SoftwareType,DateUTC
2013-06-26 00:02:00,74.0,-99.9,-100.00,SSE,167,5.0,10.0,-999,-99.99,,,-99.99,,2013-06-26 05:02:00,
2013-06-26 00:11:00,74.0,-99.9,-100.00,South,174,6.0,9.0,-999,-99.99,,,-99.99,,2013-06-26 05:11:00,
2013-06-26 00:22:00,73.0,-99.9,-100.00,South,172,0.0,8.0,-999,-99.99,,,-99.99,,2013-06-26 05:22:00,
2013-06-26 00:34:00,73.0,-99.9,-100.00,SSW,209,3.0,11.0,-999,-99.99,,,-99.99,,2013-06-26 05:34:00,
2013-06-26 00:43:00,73.0,-99.9,-100.00,SSE,157,0.0,8.0,-999,-99.99,,,-99.99,,2013-06-26 05:43:00,
2013-06-26 00:52:00,73.0,-99.9,-100.00,South,181,5.0,7.0,-999,-99.99,,,-99.99,,2013-06-26 05:52:00,
2013-06-26 01:02:00,73.0,-99.9,-100.00,South,170,3.0,6.0,-999,-99.99,,,-99.99,,2013-06-26 06:02:00,
2013-06-26 01:12:00,73.0,-99.9,-100.00,SE,142,0.0,6.0,-999,-99.99,,,-99.99,,2013-06-26 06:12:00,
2013-06-26 01:22:00,73.0,-99.9,-100.00,SE,142,0.0,6.0,-999,-99.99,,,-99.99,,2013-06-26 06:22:00,
2013-06-26 01:34:00,73.0,-99.9,-100.00,SE,142,0.0,6.0,-999,-99.99,,,-99.99,,2013-06-26 06:34:00,
2013-06-26 01:44:00,73.0,-99.9,-100.00,SSE,158,4.0,11.0,-999,-99.99,,,-99.99,,2013-06-26 06:44:00,
2013-06-26 01:53:00,73.0,-99.9,-100.00,SSE,158,4.0,11.0,-999,-99.99,,,-99.99,,2013-06-26 06:53:00,
2013-06-26 02:02:00,73.0,-99.9,-100.00,SSE,158,4.0,11.0,-999,-99.99,,,-99.99,,2013-06-26 07:02:00,
2013-06-26 02:11:00,73.0,-99.9,-100.00,SW,219,3.0,8.0,-999,-99.99,,,-99.99,,2013-06-26 07:11:00,
2013-06-26 02:22:00,73.0,-99.9,-100.00,South,174,3.0,12.0,-999,-99.99,,,-99.99,,2013-06-26 07:22:00,
2013-06-26 02:33:00,73.0,-99.9,-100.00,South,174,3.0,12.0,-999,-99.99,,,-99.99,,2013-06-26 07:33:00,
2013-06-26 02:43:00,73.0,-99.9,-100.00,South,174,3.0,12.0,-999,-99.99,,,-99.99,,2013-06-26 07:43:00,
2013-06-26 02:53:00,73.0,-99.9,-100.00,South,174,3.0,12.0,-999,-99.99,,,-99.99,,2013-06-26 07:53:00,
2013-06-26 03:02:00,73.0,-99.9,-100.00,South,174,3.0,12.0,-999,-99.99,,,-99.99,,2013-06-26 08:02:00,
2013-06-26 03:11:00,72.0,-99.9,-100.00,SSW,209,3.0,7.0,-999,-99.99,,,-99.99,,2013-06-26 08:11:00,
2013-06-26 03:22:00,72.0,-99.9,-100.00,SSW,209,3.0,7.0,-999,-99.99,,,-99.99,,2013-06-26 08:22:00,
2013-06-26 03:34:00,72.0,-99.9,-100.00,SSW,209,3.0,7.0,-999,-99.99,,,-99.99,,2013-06-26 08:34:00,
2013-06-26 03:43:00,72.0,-99.9,-100.00,SSW,209,3.0,7.0,-999,-99.99,,,-99.99,,2013-06-26 08:43:00,
2013-06-26 03:53:00,72.0,-99.9,-100.00,South,177,6.0,7.0,-999,-99.99,,,-99.99,,2013-06-26 08:53:00,
2013-06-26 04:01:00,72.0,-99.9,-100.00,South,177,6.0,7.0,-999,-99.99,,,-99.99,,2013-06-26 09:01:00,
2013-06-26 04:11:00,72.0,-99.9,-100.00,South,177,6.0,7.0,-999,-99.99,,,-99.99,,2013-06-26 09:11:00,
2013-06-26 04:23:00,72.0,-99.9,-100.00,South,177,6.0,7.0,-999,-99.99,,,-99.99,,2013-06-26 09:23:00,
2013-06-26 04:33:00,72.0,-99.9,-100.00,South,177,6.0,7.0,-999,-99.99,,,-99.99,,2013-06-26 09:33:00,
2013-06-26 04:53:00,72.0,-99.9,-100.00,South,191,0.0,9.0,-999,-99.99,,,-99.99,,2013-06-26 09:53:00,
2013-06-26 05:01:00,72.0,-99.9,-100.00,WSW,244,5.0,9.0,-999,-99.99,,,-99.99,,2013-06-26 10:01:00,
2013-06-26 05:12:00,72.0,-99.9,-100.00,WSW,244,5.0,9.0,-999,-99.99,,,-99.99,,2013-06-26 10:12:00,
2013-06-26 05:22:00,72.0,-99.9,-100.00,SSW,203,2.0,7.0,-999,-99.99,,,-99.99,,2013-06-26 10:22:00,
2013-06-26 05:34:00,72.0,-99.9,-100.00,SSW,203,2.0,7.0,-999,-99.99,,,-99.99,,2013-06-26 10:34:00,
2013-06-26 05:43:00,72.0,-99.9,-100.00,SSE,167,5.0,6.0,-999,-99.99,,,-99.99,,2013-06-26 10:43:00,
2013-06-26 05:53:00,72.0,-99.9,-100.00,South,188,4.0,5.0,-999,-99.99,,,-99.99,,2013-06-26 10:53:00,
2013-06-26 06:02:00,72.0,-99.9,-100.00,South,188,4.0,5.0,-999,-99.99,,,-99.99,,2013-06-26 11:02:00,
2013-06-26 06:12:00,72.0,-99.9,-100.00,South,188,4.0,5.0,-999,-99.99,,,-99.99,,2013-06-26 11:12:00,
2013-06-26 06:23:00,72.0,-99.9,-100.00,South,188,4.0,5.0,-999,-99.99,,,-99.99,,2013-06-26 11:23:00,
2013-06-26 06:33:00,72.0,-99.9,-100.00,SSE,147,0.0,0.0,-999,-99.99,,,-99.99,,2013-06-26 11:33:00,
2013-06-26 06:44:00,72.0,-99.9,-100.00,SSE,147,0.0,0.0,-999,-99.99,,,-99.99,,2013-06-26 11:44:00,
2013-06-26 06:52:00,72.0,-99.9,-100.00,SSE,147,0.0,0.0,-999,-99.99,,,-99.99,,2013-06-26 11:52:00,
2013-06-26 07:02:00,72.0,-99.9,-100.00,SSE,147,0.0,0.0,-999,-99.99,,,-99.99,,2013-06-26 12:02:00,
2013-06-26 07:12:00,72.0,-99.9,-100.00,SW,222,4.0,8.0,-999,-99.99,,,-99.99,,2013-06-26 12:12:00,
2013-06-26 07:22:00,72.0,-99.9,-100.00,SW,225,3.0,7.0,-999,-99.99,,,-99.99,,2013-06-26 12:22:00,
2013-06-26 07:34:00,72.0,-99.9,-100.00,SSW,208,4.0,6.0,-999,-99.99,,,-99.99,,2013-06-26 12:34:00,
2013-06-26 07:43:00,72.0,-99.9,-100.00,SSW,208,4.0,6.0,-999,-99.99,,,-99.99,,2013-06-26 12:43:00,
2013-06-26 07:52:00,72.0,-99.9,-100.00,SW,236,6.0,10.0,-999,-99.99,,,-99.99,,2013-06-26 12:52:00,
2013-06-26 08:02:00,72.0,-99.9,-100.00,NW,309,5.0,24.0,-999,-99.99,,,-99.99,,2013-06-26 13:02:00,
2013-06-26 08:11:00,72.0,-99.9,-100.00,NNW,329,11.0,17.0,-999,-99.99,,,-99.99,,2013-06-26 13:11:00,
2013-06-26 08:23:00,72.0,-99.9,-100.00,NNW,338,9.0,10.0,-999,-99.99,,,-99.99,,2013-06-26 13:23:00,
2013-06-26 08:34:00,72.0,-99.9,-100.00,North,1,7.0,9.0,-999,-99.99,,,-99.99,,2013-06-26 13:34:00,
2013-06-26 08:43:00,71.0,-99.9,-100.00,NNE,19,9.0,9.0,-999,-99.99,,,-99.99,,2013-06-26 13:43:00,
2013-06-26 08:53:00,71.0,-99.9,-100.00,NE,36,13.0,17.0,-999,-99.99,,,-99.99,,2013-06-26 13:53:00,
2013-06-26 09:02:00,71.0,-99.9,-100.00,NE,53,11.0,16.0,-999,-99.99,,,-99.99,,2013-06-26 14:02:00,
2013-06-26 09:12:00,71.0,-99.9,-100.00,WSW,248,8.0,14.0,-999,-99.99,,,-99.99,,2013-06-26 14:12:00,
2013-06-26 09:24:00,71.0,-99.9,-100.00,WNW,284,5.0,19.0,-999,-99.99,,,-99.99,,2013-06-26 14:24:00,
2013-06-26 09:34:00,71.0,-99.9,-100.00,SW,236,5.0,11.0,-999,-99.99,,,-99.99,,2013-06-26 14:34:00,
2013-06-26 09:42:00,71.0,-99.9,-100.00,WNW,288,0.0,6.0,-999,-99.99,,,-99.99,,2013-06-26 14:42:00,
2013-06-26 09:53:00,71.0,-99.9,-100.00,SW,233,5.0,5.0,-999,-99.99,,,-99.99,,2013-06-26 14:53:00,
2013-06-26 10:02:00,71.0,-99.9,-100.00,SSW,206,5.0,9.0,-999,-99.99,,,-99.99,,2013-06-26 15:02:00,
2013-06-26 10:12:00,71.0,-99.9,-100.00,SW,236,5.0,13.0,-999,-99.99,,,-99.99,,2013-06-26 15:12:00,
2013-06-26 10:22:00,71.0,-99.9,-100.00,NW,313,10.0,14.0,-999,-99.99,,,-99.99,,2013-06-26 15:22:00,
2013-06-26 10:34:00,72.0,-99.9,-100.00,SSW,205,3.0,10.0,-999,-99.99,,,-99.99,,2013-06-26 15:34:00,
2013-06-26 10:44:00,72.0,-99.9,-100.00,SSW,206,9.0,9.0,-999,-99.99,,,-99.99,,2013-06-26 15:44:00,
2013-06-26 10:53:00,73.0,-99.9,-100.00,West,272,5.0,10.0,-999,-99.99,,,-99.99,,2013-06-26 15:53:00,
2013-06-26 11:02:00,73.0,-99.9,-100.00,WSW,251,7.0,9.0,-999,-99.99,,,-99.99,,2013-06-26 16:02:00,
2013-06-26 11:12:00,75.0,-99.9,-100.00,SSW,206,0.0,10.0,-999,-99.99,,,-99.99,,2013-06-26 16:12:00,
2013-06-26 11:22:00,75.0,-99.9,-100.00,SW,232,7.0,13.0,-999,-99.99,,,-99.99,,2013-06-26 16:22:00,
2013-06-26 11:34:00,76.0,-99.9,-100.00,SW,215,0.0,12.0,-999,-99.99,,,-99.99,,2013-06-26 16:34:00,
2013-06-26 11:43:00,76.0,-99.9,-100.00,WSW,237,7.0,8.0,-999,-99.99,,,-99.99,,2013-06-26 16:43:00,
2013-06-26 11:52:00,77.0,-99.9,-100.00,WSW,239,4.0,9.0,-999,-99.99,,,-99.99,,2013-06-26 16:52:00,
2013-06-26 12:02:00,77.0,-99.9,-100.00,WSW,251,0.0,12.0,-999,-99.99,,,-99.99,,2013-06-26 17:02:00,
2013-06-26 12:11:00,77.0,-99.9,-100.00,WNW,285,6.0,12.0,-999,-99.99,,,-99.99,,2013-06-26 17:11:00,
2013-06-26 12:24:00,77.0,-99.9,-100.00,WNW,285,6.0,12.0,-999,-99.99,,,-99.99,,2013-06-26 17:24:00,
2013-06-26 12:33:00,77.0,-99.9,-100.00,WNW,285,6.0,12.0,-999,-99.99,,,-99.99,,2013-06-26 17:33:00,
2013-06-26 12:43:00,77.0,-99.9,-100.00,WNW,285,6.0,12.0,-999,-99.99,,,-99.99,,2013-06-26 17:43:00,
2013-06-26 12:52:00,80.0,-99.9,-100.00,WSW,240,6.0,10.0,-999,-99.99,,,-99.99,,2013-06-26 17:52:00,
2013-06-26 13:01:00,80.0,-99.9,-100.00,WSW,240,6.0,10.0,-999,-99.99,,,-99.99,,2013-06-26 18:01:00,
2013-06-26 13:12:00,80.0,-99.9,-100.00,WSW,240,6.0,10.0,-999,-99.99,,,-99.99,,2013-06-26 18:12:00,
2013-06-26 13:22:00,80.0,-99.9,-100.00,WSW,240,6.0,10.0,-999,-99.99,,,-99.99,,2013-06-26 18:22:00,
2013-06-26 13:34:00,81.0,-99.9,-100.00,West,274,5.0,9.0,-999,-99.99,,,-99.99,,2013-06-26 18:34:00,
2013-06-26 13:43:00,81.0,-99.9,-100.00,West,274,5.0,9.0,-999,-99.99,,,-99.99,,2013-06-26 18:43:00,
2013-06-26 13:52:00,81.0,-99.9,-100.00,West,274,5.0,9.0,-999,-99.99,,,-99.99,,2013-06-26 18:52:00,
2013-06-26 14:02:00,81.0,-99.9,-100.00,West,274,5.0,9.0,-999,-99.99,,,-99.99,,2013-06-26 19:02:00,
2013-06-26 14:11:00,81.0,-99.9,-100.00,West,274,5.0,9.0,-999,-99.99,,,-99.99,,2013-06-26 19:11:00,
2013-06-26 14:33:00,82.0,-99.9,-100.00,SW,226,8.0,15.0,-999,-99.99,,,-99.99,,2013-06-26 19:33:00,
2013-06-26 14:43:00,83.0,-99.9,-100.00,SW,227,9.0,10.0,-999,-99.99,,,-99.99,,2013-06-26 19:43:00,
2013-06-26 14:52:00,83.0,-99.9,-100.00,SW,227,9.0,10.0,-999,-99.99,,,-99.99,,2013-06-26 19:52:00,
2013-06-26 15:02:00,83.0,-99.9,-100.00,SW,227,9.0,10.0,-999,-99.99,,,-99.99,,2013-06-26 20:02:00,
2013-06-26 15:12:00,83.0,-99.9,-100.00,SW,227,9.0,10.0,-999,-99.99,,,-99.99,,2013-06-26 20:12:00,
2013-06-26 15:22:00,84.0,-99.9,-100.00,WNW,282,4.0,9.0,-999,-99.99,,,-99.99,,2013-06-26 20:22:00,
2013-06-26 15:34:00,84.0,-99.9,-100.00,WNW,282,4.0,9.0,-999,-99.99,,,-99.99,,2013-06-26 20:34:00,
2013-06-26 15:43:00,84.0,-99.9,-100.00,WNW,282,4.0,9.0,-999,-99.99,,,-99.99,,2013-06-26 20:43:00,
2013-06-26 15:53:00,84.0,-99.9,-100.00,WNW,282,4.0,9.0,-999,-99.99,,,-99.99,,2013-06-26 20:53:00,
2013-06-26 16:02:00,84.0,-99.9,-100.00,WNW,282,4.0,9.0,-999,-99.99,,,-99.99,,2013-06-26 21:02:00,
2013-06-26 16:50:00,83.0,-99.9,-100.00,WNW,299,4.0,6.0,-999,-99.99,,,-99.99,,2013-06-26 21:50:00,
2013-06-26 17:11:00,83.0,-99.9,-100.00,WNW,299,4.0,6.0,-999,-99.99,,,-99.99,,2013-06-26 22:11:00,
2013-06-26 17:22:00,83.0,-99.9,-100.00,WNW,299,4.0,6.0,-999,-99.99,,,-99.99,,2013-06-26 22:22:00,
2013-06-26 17:34:00,83.0,-99.9,-100.00,WNW,299,4.0,6.0,-999,-99.99,,,-99.99,,2013-06-26 22:34:00,
2013-06-26 17:43:00,83.0,-99.9,-100.00,WNW,299,4.0,6.0,-999,-99.99,,,-99.99,,2013-06-26 22:43:00,
2013-06-26 18:22:00,84.0,-99.9,-100.00,NNW,327,3.0,4.0,-999,-99.99,,,-99.99,,2013-06-26 23:22:00,
2013-06-26 18:34:00,84.0,-99.9,-100.00,NNW,327,3.0,4.0,-999,-99.99,,,-99.99,,2013-06-26 23:34:00,
2013-06-26 18:43:00,84.0,-99.9,-100.00,NNW,327,3.0,4.0,-999,-99.99,,,-99.99,,2013-06-26 23:43:00,
2013-06-26 18:53:00,84.0,-99.9,-100.00,NNW,327,3.0,4.0,-999,-99.99,,,-99.99,,2013-06-26 23:53:00,
2013-06-26 19:02:00,84.0,-99.9,-100.00,NNW,327,3.0,4.0,-999,-99.99,,,-99.99,,2013-06-27 00:02:00,
2013-06-26 20:11:00,81.0,-99.9,-100.00,NNW,340,0.0,0.0,-999,-99.99,,,-99.99,,2013-06-27 01:11:00,
2013-06-26 20:22:00,81.0,-99.9,-100.00,NNW,340,0.0,0.0,-999,-99.99,,,-99.99,,2013-06-27 01:22:00,
2013-06-26 20:32:00,81.0,-99.9,-100.00,NNW,340,0.0,0.0,-999,-99.99,,,-99.99,,2013-06-27 01:32:00,
2013-06-26 20:43:00,80.0,-99.9,-100.00,NNW,340,0.0,0.0,-999,-99.99,,,-99.99,,2013-06-27 01:43:00,
2013-06-26 20:53:00,80.0,-99.9,-100.00,NNW,340,0.0,0.0,-999,-99.99,,,-99.99,,2013-06-27 01:53:00,
2013-06-26 21:01:00,80.0,-99.9,-100.00,NNW,340,0.0,0.0,-999,-99.99,,,-99.99,,2013-06-27 02:01:00,
2013-06-26 21:11:00,80.0,-99.9,-100.00,NNW,340,0.0,0.0,-999,-99.99,,,-99.99,,2013-06-27 02:11:00,
2013-06-26 21:22:00,80.0,-99.9,-100.00,NNW,340,0.0,0.0,-999,-99.99,,,-99.99,,2013-06-27 02:22:00,
2013-06-26 21:32:00,79.0,-99.9,-100.00,NNW,340,0.0,0.0,-999,-99.99,,,-99.99,,2013-06-27 02:32:00,
2013-06-26 21:43:00,79.0,-99.9,-100.00,NNW,340,0.0,0.0,-999,-99.99,,,-99.99,,2013-06-27 02:43:00,
2013-06-26 21:52:00,79.0,-99.9,-100.00,NNW,340,0.0,0.0,-999,-99.99,,,-99.99,,2013-06-27 02:52:00,
2013-06-26 22:02:00,79.0,-99.9,-100.00,NNW,340,0.0,0.0,-999,-99.99,,,-99.99,,2013-06-27 03:02:00,
2013-06-26 22:11:00,79.0,-99.9,-100.00,NNW,340,0.0,0.0,-999,-99.99,,,-99.99,,2013-06-27 03:11:00,
2013-06-26 22:22:00,78.0,-99.9,-100.00,NNW,340,0.0,0.0,-999,-99.99,,,-99.99,,2013-06-27 03:22:00,
2013-06-26 22:33:00,78.0,-99.9,-100.00,NNW,340,0.0,0.0,-999,-99.99,,,-99.99,,2013-06-27 03:33:00,
2013-06-26 22:42:00,78.0,-99.9,-100.00,NNW,340,0.0,0.0,-999,-99.99,,,-99.99,,2013-06-27 03:42:00,
2013-06-26 22:52:00,77.0,-99.9,-100.00,NNW,340,0.0,0.0,-999,-99.99,,,-99.99,,2013-06-27 03:52:00,
2013-06-26 23:01:00,77.0,-99.9,-100.00,NNW,340,0.0,0.0,-999,-99.99,,,-99.99,,2013-06-27 04:01:00,
2013-06-26 23:11:00,77.0,-99.9,-100.00,NNW,340,0.0,0.0,-999,-99.99,,,-99.99,,2013-06-27 04:11:00,
2013-06-26 23:33:00,77.0,-99.9,-100.00,NNW,340,0.0,0.0,-999,-99.99,,,-99.99,,2013-06-27 04:33:00,
2013-06-26 23:42:00,76.0,-99.9,-100.00,West,277,4.0,5.0,-999,-99.99,,,-99.99,,2013-06-27 04:42:00,
2013-06-26 23:53:00,76.0,-99.9,-100.00,West,277,4.0,5.0,-999,-99.99,,,-99.99,,2013-06-27 04:53:00,